2023/08/18 00:00:00, 0.2,22.0
2023/08/18 00:10:00, 0.2,22.1
2023/08/18 00:20:00, 0.2,22.1
2023/08/18 00:30:00, 0.2,22.2
2023/08/18 00:40:00, 0.3,22.1
2023/08/18 00:50:00, 0.3,21.8
2023/08/18 01:00:00, 0.3,22.4
2023/08/18 01:10:00, 0.3,21.8
2023/08/18 01:20:00, 0.3,21.8
2023/08/18 01:30:00, 0.2,21.9
2023/08/18 01:40:00, 0.2,22.1
2023/08/18 01:50:00, 0.2,21.9
2023/08/18 02:00:00, 0.2,22.1
2023/08/18 02:10:00, 0.2,22.0
2023/08/18 02:20:00, 0.3,21.9
2023/08/18 02:30:00, 0.3,22.1
2023/08/18 02:40:00, 0.3,22.3
2023/08/18 02:50:00, 0.3,22.2
2023/08/18 03:00:00, 0.3,22.3
2023/08/18 03:10:00, 0.3,22.3
2023/08/18 03:20:00, 0.3,22.2
2023/08/18 03:30:00, 0.3,22.2
2023/08/18 03:40:00, 0.3,22.2
2023/08/18 03:50:00, 0.2,22.4
2023/08/18 04:00:00, 0.2,22.6
2023/08/18 04:10:00, 0.3,22.6
2023/08/18 04:20:00, 0.3,22.6
2023/08/18 04:30:00, 0.3,22.7
2023/08/18 04:40:00, 0.3,22.6
2023/08/18 04:50:00, 0.3,22.6
2023/08/18 05:00:00, 0.3,22.7
2023/08/18 05:10:00, 0.3,23.0
2023/08/18 05:20:00, 0.3,22.6
2023/08/18 05:30:00, 0.3,22.6
2023/08/18 05:40:00, 0.3,22.8
2023/08/18 05:50:00, 0.3,23.0
2023/08/18 06:00:00, 0.3,23.0
2023/08/18 06:10:00, 0.3,22.6
2023/08/18 06:20:00, 0.3,23.5
2023/08/18 06:30:00, 0.3,23.2
2023/08/18 06:40:00, 0.3,23.2
2023/08/18 06:50:00, 0.3,23.7
2023/08/18 07:00:00, 0.3,23.9
2023/08/18 07:10:00, 0.3,24.0
2023/08/18 07:20:00, 5.1,24.2
2023/08/18 07:30:00, 8.4,24.6
2023/08/18 07:40:00, 7.7,24.8
2023/08/18 07:50:00, 7.7,25.5
2023/08/18 08:00:00, 5.9,25.8
2023/08/18 08:10:00, 0.8,26.1
2023/08/18 08:20:00, 0.4,25.6
2023/08/18 08:30:00, 0.3,26.6
2023/08/18 08:40:00, 0.3,27.0
2023/08/18 08:50:00, 0.3,27.1
2023/08/18 09:00:00, 0.3,27.6
2023/08/18 09:10:00, 0.4,28.0
2023/08/18 09:20:00, 2.6,28.7
2023/08/18 09:30:00, 9.8,28.7
2023/08/18 09:40:00,10.1,29.2
2023/08/18 09:50:00, 9.7,29.2
2023/08/18 10:00:00, 9.8,28.5
2023/08/18 10:10:00, 9.8,30.0
2023/08/18 10:20:00, 9.9,30.7
2023/08/18 10:30:00, 0.6,32.1
2023/08/18 10:40:00, 0.5,32.3
2023/08/18 10:50:00, 0.5,31.8
2023/08/18 11:00:00, 0.5,32.1
2023/08/18 11:10:00, 0.5,31.5
2023/08/18 11:20:00, 0.5,31.8
2023/08/18 11:30:00, 0.5,33.5
2023/08/18 11:40:00, 0.5,32.9
2023/08/18 11:50:00, 0.5,32.9
2023/08/18 12:00:00, 0.5,33.9
2023/08/18 12:10:00, 0.5,32.8
2023/08/18 12:20:00, 0.5,33.7
2023/08/18 12:30:00, 0.5,33.9
2023/08/18 12:40:00, 0.5,34.3
2023/08/18 12:50:00, 6.7,34.1
2023/08/18 13:00:00, 8.3,34.9
2023/08/18 13:10:00, 7.9,34.5
2023/08/18 13:20:00, 1.5,35.9
2023/08/18 13:30:00, 0.5,35.7
2023/08/18 13:40:00, 0.4,35.7
2023/08/18 13:50:00, 0.5,35.2
2023/08/18 14:00:00, 0.5,36.5
2023/08/18 14:10:00, 0.8,35.9
2023/08/18 14:20:00, 0.5,35.6
2023/08/18 14:30:00, 0.6,36.0
2023/08/18 14:40:00, 2.6,35.7
2023/08/18 14:50:00, 0.6,33.7
2023/08/18 15:00:00, 0.5,34.4
2023/08/18 15:10:00, 1.5,32.6
2023/08/18 15:20:00, 3.0,32.5
2023/08/18 15:30:00, 7.2,32.5
2023/08/18 15:40:00, 7.4,32.1
2023/08/18 15:50:00, 5.3,31.8
2023/08/18 16:00:00, 5.3,32.1
2023/08/18 16:10:00, 5.3,33.0
2023/08/18 16:20:00, 5.4,32.3
2023/08/18 16:30:00, 0.5,32.1
2023/08/18 16:40:00, 0.5,34.2
2023/08/18 16:50:00, 0.5,34.5
2023/08/18 17:00:00, 0.5,34.7
2023/08/18 17:10:00, 1.1,31.7
2023/08/18 17:20:00, 5.3,30.4
2023/08/18 17:30:00, 6.6,29.9
2023/08/18 17:40:00, 0.9,29.6
2023/08/18 17:50:00, 0.3,29.2
2023/08/18 18:00:00, 0.3,29.2
2023/08/18 18:10:00, 0.4,29.0
2023/08/18 18:20:00, 0.3,29.0
2023/08/18 18:30:00, 0.3,28.5
2023/08/18 18:40:00, 0.3,27.7
2023/08/18 18:50:00, 0.3,27.4
2023/08/18 19:00:00, 0.3,27.2
2023/08/18 19:10:00, 0.3,26.9
2023/08/18 19:20:00, 0.3,26.2
2023/08/18 19:30:00, 0.3,26.6
2023/08/18 19:40:00, 0.3,26.2
2023/08/18 19:50:00, 0.3,26.1
2023/08/18 20:00:00, 0.3,25.8
2023/08/18 20:10:00, 0.3,25.8
2023/08/18 20:20:00, 0.3,25.7
2023/08/18 20:30:00, 0.2,25.4
2023/08/18 20:40:00, 0.2,25.3
2023/08/18 20:50:00, 0.3,25.1
2023/08/18 21:00:00, 0.3,24.9
2023/08/18 21:10:00, 0.2,24.6
2023/08/18 21:20:00, 0.2,24.6
2023/08/18 21:30:00, 0.2,24.5
2023/08/18 21:40:00, 0.2,24.3
2023/08/18 21:50:00, 0.2,24.3
2023/08/18 22:00:00, 0.2,24.4
2023/08/18 22:10:00, 0.2,24.2
2023/08/18 22:20:00, 0.2,24.0
2023/08/18 22:30:00, 0.2,24.0
2023/08/18 22:40:00, 0.2,24.0
2023/08/18 22:50:00, 0.2,23.8
2023/08/18 23:00:00, 0.2,23.9
2023/08/18 23:10:00, 0.2,24.0
2023/08/18 23:20:00, 0.2,24.0
2023/08/18 23:30:00, 0.2,24.0
2023/08/18 23:40:00, 0.2,23.8
2023/08/18 23:50:00, 0.2,23.7
